Hourly Data Report for October 19, 2015

All times are specified in Local Standard Time (LST). Add 1 hour to adjust for Daylight Saving Time where and when it is observed.

CLYDE RIVER A
NUNAVUT

70°29'09.000" N
68°31'01.000" W
26.50 m
2400804
71090
YCY

Download Data

Hourly Data (October 2015)
Hourly Data Report for October 19, 2015
Temp Definition
°C
Dew Point Temp Definition
°C
Rel Hum Definition
%
Wind Dir Definition
10's deg

Wind Spd Definition
km/h
Visibility Definition
km
Stn Press Definition
kPa
Hmdx Definition


Wind Chill Definition


Weather Definition


TIME
00:00 Legend Double Dagger -10.6 -13.1 82 27 8 16.1 100.59   -15 LegendNANA
01:00 Legend Double Dagger -8.9 -11.6 81 30 18 16.1 100.61   -16 Snow
02:00 Legend Double Dagger -8.5 -10.5 86 30 17 6.4 100.63   -15 Snow
03:00 Legend Double Dagger -8.9 -10.8 86 30 17 16.1 100.61   -16 Snow
04:00 Legend Double Dagger -8.3 -10.1 87 30 24 8.1 100.61   -16 Snow
05:00 Legend Double Dagger -7.8 -8.9 92 30 26 1.6 100.62   -16 Snow
06:00 Legend Double Dagger -7.3 -8.7 90 30 26 14.5 100.62   -15 Snow
07:00 Legend Double Dagger -6.9 -8.1 91 30 32 3.2 100.58   -16 Snow
08:00 Legend Double Dagger -5.6 -7.0 90 30 24 2.0 100.58   -13 Snow
09:00 Legend Double Dagger -5.6 -6.9 91 33 11 16.1 100.59   -10 LegendNANA
10:00 Legend Double Dagger -3.5 -4.7 92 9 30 16.1 100.58   -11 LegendNANA
11:00 Legend Double Dagger -3.8 -5.1 91 11 18 16.1 100.59   -10 LegendNANA
12:00 Legend Double Dagger -3.5 -4.2 95 10 28 0.6 100.62   -11 Moderate Snow
13:00 Legend Double Dagger -3.8 -4.4 96 35 5 0.6 100.64   -6 Moderate Snow
14:00 Legend Double Dagger -4.4 -5.5 92 30 13 16.1 100.65   -9 LegendNANA
15:00 Legend Double Dagger -2.6 -5.4 81 8 24 12.9 100.65   -9 Snow
16:00 Legend Double Dagger -3.0 -4.9 87 5 17 16.1 100.67   -9 Snow
17:00 Legend Double Dagger -3.8 -6.8 80 4 21 16.1 100.70   -10 LegendNANA
18:00 Legend Double Dagger -4.5 -6.9 84 2 24 16.1 100.71   -12 LegendNANA
19:00 Legend Double Dagger -4.5 -6.5 86 1 22 16.1 100.74   -11 Snow
20:00 Legend Double Dagger -4.1 -6.2 85 3 21 4.8 100.76   -11 Snow
21:00 Legend Double Dagger -4.0 -6.0 86 3 18 16.1 100.78   -10 LegendNANA
22:00 Legend Double Dagger -5.6 -7.9 84 36 21 16.1 100.79   -12 LegendNANA
23:00 Legend Double Dagger -7.0 -8.7 88 35 21 16.1 100.77   -14 LegendNANA

Notes on Data Quality.

Legend

  • E = Estimated
  • M = Missing
  • NA = Not Available
  • ‡ = Partner data that is not subject to review by the National Climate Archives
Date modified: